Time,TemperatureF,DewpointF,PressureIn,WindDirection,WindDirectionDegrees,WindSpeedMPH,WindSpeedGustMPH,Humidity,HourlyPrecipIn,Conditions,Clouds,dailyrainin,SoftwareType,DateUTC
2014-01-03 00:09:00,30.3,24.0,29.98,NNW,344,9.0,24.0,76,0.00,,,0.00,weatherlink.com 1.10,2014-01-03 05:09:00,
2014-01-03 00:24:00,29.6,22.0,29.99,NW,325,9.0,22.0,74,0.00,,,0.00,weatherlink.com 1.10,2014-01-03 05:24:00,
2014-01-03 00:39:00,27.8,19.0,30.01,NW,322,10.0,18.0,70,0.00,,,0.00,weatherlink.com 1.10,2014-01-03 05:39:00,
2014-01-03 00:54:00,26.5,18.0,30.02,North,355,15.0,18.0,69,0.00,,,0.00,weatherlink.com 1.10,2014-01-03 05:54:00,
2014-01-03 01:09:00,25.2,16.0,30.03,North,355,11.0,22.0,67,0.00,,,0.00,weatherlink.com 1.10,2014-01-03 06:09:00,
2014-01-03 01:25:00,24.5,15.0,30.05,NNE,24,14.0,16.0,66,0.00,,,0.00,weatherlink.com 1.10,2014-01-03 06:25:00,
2014-01-03 01:40:00,23.1,13.0,30.07,North,5,15.0,23.0,65,0.00,,,0.00,weatherlink.com 1.10,2014-01-03 06:40:00,
2014-01-03 01:55:00,22.2,12.0,30.08,NNW,334,16.0,18.0,64,0.00,,,0.00,weatherlink.com 1.10,2014-01-03 06:55:00,
2014-01-03 02:10:00,21.7,11.0,30.10,NNW,341,15.0,18.0,64,0.00,,,0.00,weatherlink.com 1.10,2014-01-03 07:10:00,
2014-01-03 02:25:00,21.2,10.0,30.11,NNW,347,14.0,29.0,61,0.00,,,0.00,weatherlink.com 1.10,2014-01-03 07:25:00,
2014-01-03 02:40:00,20.4,8.0,30.13,NW,307,13.0,28.0,60,0.00,,,0.00,weatherlink.com 1.10,2014-01-03 07:40:00,
2014-01-03 02:55:00,19.6,7.0,30.15,NW,319,8.0,24.0,59,0.00,,,0.00,weatherlink.com 1.10,2014-01-03 07:55:00,
2014-01-03 03:10:00,18.4,7.0,30.17,North,351,5.0,12.0,61,0.00,,,0.00,weatherlink.com 1.10,2014-01-03 08:10:00,
2014-01-03 03:25:00,18.3,7.0,30.19,NNW,336,7.0,19.0,61,0.00,,,0.00,weatherlink.com 1.10,2014-01-03 08:25:00,
2014-01-03 03:40:00,18.0,6.0,30.21,NE,39,4.0,7.0,60,0.00,,,0.00,weatherlink.com 1.10,2014-01-03 08:40:00,
2014-01-03 03:55:00,17.2,5.0,30.23,NNW,347,10.0,20.0,59,0.00,,,0.00,weatherlink.com 1.10,2014-01-03 08:55:00,
2014-01-03 04:10:00,16.1,4.0,30.25,NNE,28,11.0,23.0,58,0.00,,,0.00,weatherlink.com 1.10,2014-01-03 09:10:00,
2014-01-03 04:25:00,15.7,4.0,30.27,NNW,347,22.0,33.0,61,0.00,,,0.00,weatherlink.com 1.10,2014-01-03 09:25:00,
2014-01-03 04:40:00,15.9,3.0,30.29,NNW,343,19.0,27.0,58,0.00,,,0.00,weatherlink.com 1.10,2014-01-03 09:40:00,
2014-01-03 04:55:00,15.9,3.0,30.31,NNE,28,8.0,21.0,57,0.00,,,0.00,weatherlink.com 1.10,2014-01-03 09:55:00,
2014-01-03 05:10:00,15.8,3.0,30.32,NE,41,5.0,20.0,58,0.00,,,0.00,weatherlink.com 1.10,2014-01-03 10:10:00,
2014-01-03 05:41:00,15.9,3.0,30.35,NNW,342,5.0,9.0,58,0.00,,,0.00,weatherlink.com 1.10,2014-01-03 10:41:00,
2014-01-03 05:56:00,15.7,3.0,30.36,NE,38,9.0,13.0,58,0.00,,,0.00,weatherlink.com 1.10,2014-01-03 10:56:00,
2014-01-03 06:11:00,15.8,3.0,30.39,NNE,22,6.0,22.0,58,0.00,,,0.00,weatherlink.com 1.10,2014-01-03 11:11:00,
2014-01-03 06:26:00,15.6,3.0,30.40,North,5,9.0,16.0,57,0.00,,,0.00,weatherlink.com 1.10,2014-01-03 11:26:00,
2014-01-03 06:41:00,15.7,3.0,30.41,NNW,334,15.0,21.0,57,0.00,,,0.00,weatherlink.com 1.10,2014-01-03 11:41:00,
2014-01-03 06:56:00,15.2,3.0,30.42,NW,321,8.0,23.0,58,0.00,,,0.00,weatherlink.com 1.10,2014-01-03 11:56:00,
2014-01-03 07:11:00,14.8,3.0,30.44,NNE,32,5.0,16.0,59,0.00,,,0.00,weatherlink.com 1.10,2014-01-03 12:11:00,
2014-01-03 07:26:00,14.8,3.0,30.44,East,88,5.0,26.0,59,0.00,,,0.00,weatherlink.com 1.10,2014-01-03 12:26:00,
2014-01-03 07:41:00,14.6,3.0,30.46,NE,53,6.0,21.0,59,0.00,,,0.00,weatherlink.com 1.10,2014-01-03 12:41:00,
2014-01-03 07:56:00,15.1,3.0,30.47,NNE,13,20.0,21.0,58,0.00,,,0.00,weatherlink.com 1.10,2014-01-03 12:56:00,
2014-01-03 08:11:00,14.9,2.0,30.49,NE,48,11.0,16.0,58,0.00,,,0.00,weatherlink.com 1.10,2014-01-03 13:11:00,
2014-01-03 08:26:00,14.9,2.0,30.50,NNE,13,9.0,16.0,58,0.00,,,0.00,weatherlink.com 1.10,2014-01-03 13:26:00,
2014-01-03 08:41:00,15.0,3.0,30.52,North,11,19.0,26.0,58,0.00,,,0.00,weatherlink.com 1.10,2014-01-03 13:41:00,
2014-01-03 08:56:00,15.1,3.0,30.53,North,355,5.0,24.0,58,0.00,,,0.00,weatherlink.com 1.10,2014-01-03 13:56:00,
2014-01-03 09:11:00,15.5,3.0,30.54,NNE,23,12.0,21.0,57,0.00,,,0.00,weatherlink.com 1.10,2014-01-03 14:11:00,
2014-01-03 09:26:00,15.5,3.0,30.55,North,360,5.0,19.0,57,0.00,,,0.00,weatherlink.com 1.10,2014-01-03 14:26:00,
2014-01-03 09:41:00,15.9,3.0,30.56,NNE,22,8.0,21.0,57,0.00,,,0.00,weatherlink.com 1.10,2014-01-03 14:41:00,
2014-01-03 09:56:00,16.2,3.0,30.56,NW,317,10.0,20.0,55,0.00,,,0.00,weatherlink.com 1.10,2014-01-03 14:56:00,
2014-01-03 10:11:00,16.3,3.0,30.57,North,9,12.0,23.0,56,0.00,,,0.00,weatherlink.com 1.10,2014-01-03 15:11:00,
2014-01-03 10:26:00,17.3,3.0,30.57,North,360,5.0,21.0,54,0.00,,,0.00,weatherlink.com 1.10,2014-01-03 15:26:00,
2014-01-03 10:41:00,17.3,3.0,30.58,North,5,7.0,18.0,53,0.00,,,0.00,weatherlink.com 1.10,2014-01-03 15:41:00,
2014-01-03 10:56:00,17.8,3.0,30.58,NE,53,1.0,10.0,52,0.00,,,0.00,weatherlink.com 1.10,2014-01-03 15:56:00,
2014-01-03 11:11:00,18.1,3.0,30.58,North,349,6.0,19.0,52,0.00,,,0.00,weatherlink.com 1.10,2014-01-03 16:11:00,
2014-01-03 11:26:00,18.2,2.0,30.58,NNW,340,13.0,19.0,50,0.00,,,0.00,weatherlink.com 1.10,2014-01-03 16:26:00,
2014-01-03 11:42:00,18.5,3.0,30.58,ESE,114,8.0,23.0,51,0.00,,,0.00,weatherlink.com 1.10,2014-01-03 16:42:00,
2014-01-03 11:57:00,18.6,3.0,30.58,NNW,342,10.0,23.0,50,0.00,,,0.00,weatherlink.com 1.10,2014-01-03 16:57:00,
2014-01-03 12:12:00,18.5,2.0,30.59,NNW,329,14.0,24.0,49,0.00,,,0.00,weatherlink.com 1.10,2014-01-03 17:12:00,
2014-01-03 12:27:00,18.2,1.0,30.59,NW,304,14.0,21.0,47,0.00,,,0.00,weatherlink.com 1.10,2014-01-03 17:27:00,
2014-01-03 12:42:00,18.8,3.0,30.59,North,5,11.0,16.0,50,0.00,,,0.00,weatherlink.com 1.10,2014-01-03 17:42:00,
2014-01-03 12:57:00,19.2,3.0,30.59,WNW,302,9.0,19.0,49,0.00,,,0.00,weatherlink.com 1.10,2014-01-03 17:57:00,
2014-01-03 13:12:00,19.5,3.0,30.60,North,350,3.0,16.0,49,0.00,,,0.00,weatherlink.com 1.10,2014-01-03 18:12:00,
2014-01-03 13:27:00,20.6,4.0,30.61,North,5,13.0,19.0,48,0.00,,,0.00,weatherlink.com 1.10,2014-01-03 18:27:00,
2014-01-03 13:42:00,20.0,2.0,30.61,NNW,329,9.0,15.0,46,0.00,,,0.00,weatherlink.com 1.10,2014-01-03 18:42:00,
2014-01-03 13:57:00,20.5,3.0,30.62,NW,315,6.0,11.0,46,0.00,,,0.00,weatherlink.com 1.10,2014-01-03 18:57:00,
2014-01-03 14:12:00,20.5,3.0,30.62,NNE,28,6.0,10.0,47,0.00,,,0.00,weatherlink.com 1.10,2014-01-03 19:12:00,
2014-01-03 14:27:00,20.5,3.0,30.62,NNW,346,1.0,9.0,46,0.00,,,0.00,weatherlink.com 1.10,2014-01-03 19:27:00,
2014-01-03 14:42:00,20.8,3.0,30.63,NNE,24,2.0,10.0,47,0.00,,,0.00,weatherlink.com 1.10,2014-01-03 19:42:00,
2014-01-03 14:57:00,21.1,2.0,30.63,East,79,4.0,9.0,43,0.00,,,0.00,weatherlink.com 1.10,2014-01-03 19:57:00,
2014-01-03 15:12:00,21.2,2.0,30.64,NE,43,5.0,9.0,43,0.00,,,0.00,weatherlink.com 1.10,2014-01-03 20:12:00,
2014-01-03 15:27:00,20.9,3.0,30.65,North,351,2.0,7.0,45,0.00,,,0.00,weatherlink.com 1.10,2014-01-03 20:27:00,
2014-01-03 15:42:00,21.5,4.0,30.66,NE,38,5.0,9.0,46,0.00,,,0.00,weatherlink.com 1.10,2014-01-03 20:42:00,
2014-01-03 15:57:00,21.4,3.0,30.66,NE,52,5.0,8.0,45,0.00,,,0.00,weatherlink.com 1.10,2014-01-03 20:57:00,
2014-01-03 16:12:00,21.3,2.0,30.67,North,9,1.0,6.0,44,0.00,,,0.00,weatherlink.com 1.10,2014-01-03 21:12:00,
2014-01-03 16:27:00,21.2,2.0,30.67,NE,46,5.0,6.0,43,0.00,,,0.00,weatherlink.com 1.10,2014-01-03 21:27:00,
2014-01-03 16:42:00,20.9,2.0,30.68,NE,42,1.0,6.0,44,0.00,,,0.00,weatherlink.com 1.10,2014-01-03 21:42:00,
2014-01-03 16:57:00,20.5,2.0,30.68,ENE,61,4.0,7.0,45,0.00,,,0.00,weatherlink.com 1.10,2014-01-03 21:57:00,
2014-01-03 17:12:00,19.4,3.0,30.68,ENE,78,5.0,7.0,48,0.00,,,0.00,weatherlink.com 1.10,2014-01-03 22:12:00,
2014-01-03 17:27:00,18.6,3.0,30.69,ESE,115,1.0,6.0,50,0.00,,,0.00,weatherlink.com 1.10,2014-01-03 22:27:00,
2014-01-03 17:42:00,18.5,2.0,30.70,East,94,0.0,2.0,49,0.00,,,0.00,weatherlink.com 1.10,2014-01-03 22:42:00,
2014-01-03 17:57:00,18.1,2.0,30.70,East,94,1.0,5.0,50,0.00,,,0.00,weatherlink.com 1.10,2014-01-03 22:57:00,
2014-01-03 18:12:00,18.0,2.0,30.71,ENE,70,2.0,6.0,50,0.00,,,0.00,weatherlink.com 1.10,2014-01-03 23:12:00,
2014-01-03 18:27:00,17.8,2.0,30.72,ENE,78,4.0,5.0,50,0.00,,,0.00,weatherlink.com 1.10,2014-01-03 23:27:00,
2014-01-03 18:42:00,16.7,4.0,30.73,ENE,72,0.0,1.0,57,0.00,,,0.00,weatherlink.com 1.10,2014-01-03 23:42:00,
2014-01-03 18:57:00,15.8,4.0,30.73,ENE,60,0.0,1.0,60,0.00,,,0.00,weatherlink.com 1.10,2014-01-03 23:57:00,
2014-01-03 19:12:00,15.2,4.0,30.73,ENE,60,1.0,2.0,61,0.00,,,0.00,weatherlink.com 1.10,2014-01-04 00:12:00,
2014-01-03 19:27:00,15.1,3.0,30.74,ENE,60,0.0,1.0,60,0.00,,,0.00,weatherlink.com 1.10,2014-01-04 00:27:00,
2014-01-03 19:42:00,15.0,4.0,30.74,ENE,60,0.0,1.0,61,0.00,,,0.00,weatherlink.com 1.10,2014-01-04 00:42:00,
2014-01-03 19:58:00,14.9,5.0,30.74,ENE,60,0.0,1.0,64,0.00,,,0.00,weatherlink.com 1.10,2014-01-04 00:58:00,
2014-01-03 20:13:00,13.5,4.0,30.75,ENE,61,0.0,1.0,65,0.00,,,0.00,weatherlink.com 1.10,2014-01-04 01:13:00,
2014-01-03 20:28:00,13.3,4.0,30.75,ESE,106,1.0,2.0,65,0.00,,,0.00,weatherlink.com 1.10,2014-01-04 01:28:00,
2014-01-03 20:43:00,13.4,4.0,30.75,ESE,111,0.0,1.0,67,0.00,,,0.00,weatherlink.com 1.10,2014-01-04 01:43:00,
2014-01-03 20:58:00,13.1,4.0,30.75,ESE,111,0.0,0.0,68,0.00,,,0.00,weatherlink.com 1.10,2014-01-04 01:58:00,
2014-01-03 21:13:00,12.4,5.0,30.76,ESE,110,0.0,1.0,73,0.00,,,0.00,weatherlink.com 1.10,2014-01-04 02:13:00,
2014-01-03 21:28:00,11.5,5.0,30.76,NW,315,0.0,0.0,74,0.00,,,0.00,weatherlink.com 1.10,2014-01-04 02:28:00,
2014-01-03 21:43:00,11.3,5.0,30.76,East,82,0.0,2.0,76,0.00,,,0.00,weatherlink.com 1.10,2014-01-04 02:43:00,
2014-01-03 21:58:00,11.2,4.0,30.76,SE,130,0.0,1.0,73,0.00,,,0.00,weatherlink.com 1.10,2014-01-04 02:58:00,
2014-01-03 22:13:00,11.0,4.0,30.76,South,190,1.0,1.0,73,0.00,,,0.00,weatherlink.com 1.10,2014-01-04 03:13:00,
2014-01-03 22:28:00,10.4,4.0,30.76,South,190,0.0,0.0,75,0.00,,,0.00,weatherlink.com 1.10,2014-01-04 03:28:00,
2014-01-03 22:43:00,10.3,4.0,30.76,South,173,0.0,1.0,76,0.00,,,0.00,weatherlink.com 1.10,2014-01-04 03:43:00,
2014-01-03 22:58:00,10.3,4.0,30.76,SSE,167,1.0,2.0,76,0.00,,,0.00,weatherlink.com 1.10,2014-01-04 03:58:00,
2014-01-03 23:13:00,10.6,4.0,30.76,East,95,1.0,2.0,76,0.00,,,0.00,weatherlink.com 1.10,2014-01-04 04:13:00,
2014-01-03 23:28:00,9.9,4.0,30.76,ENE,76,0.0,0.0,78,0.00,,,0.00,weatherlink.com 1.10,2014-01-04 04:28:00,
2014-01-03 23:43:00,9.4,4.0,30.76,ENE,76,0.0,0.0,80,0.00,,,0.00,weatherlink.com 1.10,2014-01-04 04:43:00,
2014-01-03 23:58:00,9.0,4.0,30.77,SE,129,0.0,2.0,79,0.00,,,0.00,weatherlink.com 1.10,2014-01-04 04:58:00,